Content
SEND FEEDBACK

Daily
Averages
Monthly
Summary
Switzerland

GENEVA, SWITZERLAND


Home > Europe > Switzerland
Elevation: 1364 feet     Latitude: 46 15N     Longitude: 006 08E

WEATHER
 
SELECT A DAY
Number of Records: 305,659;   Date Range: 7/1/96 - 7/26/14
 
SHARE

PRINT THIS DATA

[ ← Previous Day ]
WEATHER ALMANAC - MARCH 22, 2013
[ Next Day → ]
[ °C ]   °F
Weather ElementAverageHighLow
Temperature43.8 °F55.4 °F (3:50 pm)32 °F (5:20 am)
Dewpoint31.9 °F37.4 °F (6:50 pm)28 °F (6:00 am)
Humidity62.4 %87 % (3:50 am)29 % (3:00 pm)
Barometer29.83 in30.00 in (1:00 am)29.71 in (4:20 pm)
Wind Speed3.4 mph9.2 mph (11:00 am)
Weather ElementAverage
Visibility12.7 mi
Wind DirectionENE (80.3 °)

Weather ElementTotal
Precipitation---
Heating Degree Days21.3 (Base 65)
Averaged from 67 records on March 22, 2013
WEATHER CONDITIONS BREAKOUT
WIND DIRECTION BREAKOUT
WEATHER BY HOUR - MARCH 22, 2013
[ °C ]   °F
Local TimeTemperatureDewpointHumidityBarometerVisibilityWind DirectionWind SpeedGust SpeedPrecipitationEventsConditions
12:20 AM42.8 °F32.0 °F66 %29.95 in6.2 miVariable1.2 mphMostly Cloudy
12:50 AM41.0 °F32.0 °F70 %29.95 in6.2 miCalmMostly Cloudy
1:00 AM41.0 °F31.0 °F57 %30.00 in31.0 miNW (320°)1.2 mphMostly Cloudy
1:20 AM39.2 °F32.0 °F75 %29.95 in6.2 miCalmPartly Cloudy
1:50 AM37.4 °F32.0 °F81 %29.95 in6.2 miCalmPartly Cloudy
2:00 AM38.0 °F31.0 °F68 %30.00 inWNW (300°)1.2 mph
2:20 AM37.4 °F30.2 °F75 %29.95 in6.2 miCalmPartly Cloudy
2:50 AM35.6 °F30.2 °F81 %29.92 in6.2 miSW (230°)1.2 mphPartly Cloudy
3:00 AM36.0 °F30.0 °F72 %29.99 inWSW (250°)1.2 mph
3:20 AM35.6 °F30.2 °F81 %29.92 inCalmClear
3:50 AM33.8 °F30.2 °F87 %29.92 inCalmClear
4:20 AM33.8 °F30.2 °F87 %29.92 inCalmClear
4:50 AM33.8 °F30.2 °F87 %29.92 inVariable2.3 mphClear
5:00 AM33.0 °F29.0 °F78 %29.97 inWNW (290°)1.2 mph
5:20 AM32.0 °F28.4 °F87 %29.92 inCalmClear
5:50 AM32.0 °F28.4 °F87 %29.89 inWSW (250°)1.2 mphClear
6:00 AM33.0 °F28.0 °F75 %29.97 inWest (280°)1.2 mph
6:20 AM32.0 °F28.4 °F87 %29.89 inVariable2.3 mphClear
6:50 AM32.0 °F28.4 °F87 %29.89 in6.2 miVariable1.2 mphPartly Cloudy
7:00 AM35.0 °F29.0 °F70 %29.95 in25.0 miWSW (250°)1.2 mphScattered Clouds
7:20 AM33.8 °F30.2 °F87 %29.89 in6.2 miWest (280°)2.3 mphScattered Clouds
7:50 AM37.4 °F30.2 °F75 %29.89 inCalmClear
8:00 AM38.0 °F30.0 °F64 %29.94 inWest (270°)1.2 mph
8:20 AM41.0 °F33.8 °F76 %29.89 inVariable1.2 mphClear
8:50 AM42.8 °F32.0 °F66 %29.86 inVariable1.2 mphClear
9:00 AM43.0 °F32.0 °F54 %29.91 inNE (40°)3.5 mph
9:20 AM44.6 °F32.0 °F61 %29.86 inENE (60°)4.6 mphClear
9:50 AM44.6 °F32.0 °F61 %29.86 inNE (50°)6.9 mphClear
10:20 AM46.4 °F32.0 °F57 %29.86 inENE (60°)6.9 mphClear
10:50 AM46.4 °F30.2 °F53 %29.83 inNE (50°)8.1 mphClear
11:00 AM48.0 °F31.0 °F40 %29.86 inNE (40°)9.2 mph
11:20 AM48.2 °F30.2 °F50 %29.83 inNE (40°)6.9 mphClear
11:50 AM50.0 °F30.2 °F47 %29.83 inNE (40°)6.9 mphClear
12:00 PM49.0 °F30.0 °F35 %29.84 inNNE (30°)9.2 mph
12:20 PM50.0 °F32.0 °F50 %29.83 inENE (60°)6.9 mphClear
12:50 PM50.0 °F32.0 °F50 %29.80 inNE (40°)6.9 mphClear
1:00 PM51.0 °F31.0 °F33 %29.82 in28.0 miNE (50°)8.1 mphClear
1:20 PM51.8 °F30.2 °F44 %29.80 inNE (50°)5.8 mphClear
1:50 PM51.8 °F30.2 °F44 %29.77 inNE (50°)6.9 mphClear
2:00 PM52.0 °F30.0 °F31 %29.78 inNE (50°)8.1 mph
2:20 PM51.8 °F28.4 °F41 %29.77 inENE (70°)8.1 mphClear
2:50 PM53.6 °F30.2 °F41 %29.77 inNE (50°)6.9 mphClear
3:00 PM53.0 °F30.0 °F29 %29.76 inNE (40°)9.2 mph
3:20 PM53.6 °F32.0 °F44 %29.74 inNNE (30°)6.9 mphClear
3:50 PM55.4 °F28.4 °F36 %29.74 inNNE (20°)8.1 mphClear
4:20 PM53.6 °F30.2 °F41 %29.71 inNE (40°)8.1 mphClear
4:50 PM53.6 °F33.8 °F47 %29.71 inNE (40°)6.9 mphClear
5:00 PM53.0 °F31.0 °F31 %29.72 inNE (40°)6.9 mph
5:20 PM53.6 °F32.0 °F44 %29.71 inNNE (20°)4.6 mphClear
5:50 PM53.6 °F33.8 °F47 %29.71 inVariable3.5 mphClear
6:00 PM52.0 °F34.0 °F39 %29.71 inNorth (10°)3.5 mph
6:20 PM51.8 °F35.6 °F54 %29.71 inNNE (30°)2.3 mphClear
6:50 PM50.0 °F37.4 °F62 %29.71 inVariable1.2 mphClear
7:00 PM48.0 °F36.0 °F53 %29.73 in25.0 miENE (70°)2.3 mphOvercast
7:20 PM46.4 °F37.4 °F71 %29.71 inENE (60°)2.3 mphClear
7:50 PM44.6 °F35.6 °F71 %29.71 inCalmClear
8:00 PM46.0 °F35.0 °F55 %29.74 inNW (310°)1.2 mph
8:20 PM44.6 °F35.6 °F71 %29.71 inVariable1.2 mphClear
8:50 PM44.6 °F35.6 °F71 %29.71 inVariable1.2 mphClear
9:00 PM44.0 °F35.0 °F61 %29.76 inNW (320°)1.2 mph
9:20 PM42.8 °F35.6 °F76 %29.71 inVariable1.2 mphClear
9:50 PM42.8 °F35.6 °F76 %29.74 inWest (270°)2.3 mphClear
10:20 PM42.8 °F35.6 °F76 %29.74 inVariable1.2 mphClear
10:50 PM42.8 °F35.6 °F76 %29.74 inVariable3.5 mphClear
11:00 PM42.0 °F35.0 °F70 %29.79 inWest (260°)2.3 mph
11:20 PM41.0 °F35.6 °F81 %29.74 inVariable2.3 mphClear
11:50 PM41.0 °F35.6 °F81 %29.74 in6.2 miWest (270°)2.3 mphMostly Cloudy
Hourly data recorded from LSGG, located miles away from Geneva, Switzerland







STORIES FROM OUR PARTNERS